Погода в Паново

Россия / Омская область     56°21′05″N   70°58′08″E
темп.,
°C
ветер,
м/с
пор.,
м/с
влажн.,
%
обл.,
%
осадки,
мм/ч
давл.,
гПа
погр.,
м
14 мая, пт
пт1400:00+12св378584 0.1 1023103
03:00+10св36855 0.0 102587
06:00+8всв34855 0.0 102766
09:00+13всв22595 0.0 1028402
12:00+19сз124154 0.0 1027987
15:00+21з34328 0.0 10261356
18:00+23зюз353242 0.0 10251301
21:00+18ююз464742 0.0 102370
15 мая, сб
сб1500:00+17ююз513485 0.0 1022205
03:00+17юз6174478 0.0 1021340
06:00+18зюз6145322 0.0 1020302
09:00+22з610479 0.0 1020443
12:00+27з573486 0.0 10191071
15:00+30зсз68245 0.0 10183309
18:00+29з682953 0.0 10162882
21:00+22зюз49475 0.0 1015131
16 мая, вс
вс1600:00+20з4125156 0.0 1015197
03:00+17з336519 0.9 101528
06:00+16сз3470100 0.9 101561
09:00+21ссз475832 0.0 1017499
12:00+25сз464232 0.0 10171387
15:00+28зсз593233 0.0 10152471
18:00+29зсз6113377 0.0 10132849
21:00+23зсз4104522 0.0 1014166
17 мая, пн
пн1700:00+20зюз484518 0.0 101498
03:00+18з475242 0.0 101496
06:00+17з410535 0.0 1015148
09:00+24зсз58405 0.0 1015345
12:00+29з811275 0.0 10152374
15:00+30зсз79235 0.0 10133389
18:00+30з69275 0.0 10123191
21:00+24з513395 0.0 1011250
18 мая, вт
вт1800:00+20зюз4124744 0.0 1011199
03:00+15всв24705 0.1 101267
06:00+16з346728 0.1 101160
09:00+22сз465022 0.0 1010495
12:00+25зсз6838100 0.0 10092314
15:00+25зсз6103853 0.0 10082523
18:00+21сз7124956 0.3 1008999
21:00+16ссз4108282 1.2 1009439